Regional Weather Roundup
Issued by NWS

Home | Current Version | Previous Version | Text Only | Print | Product List | Glossary On
Versions: 1 2 3 4 5 6 7 8 9 10 11 12 13 14 15 16 17 18 19 20 21 22 23 24 25 26 27 28 29 30 31 32 33 34 35 36 37 38 39 40 41 42 43 44 45 46 47 48 49 50
000
ASUS42 KKEY 110910
RWRKEY

FLORIDA REGIONAL WEATHER ROUNDUP FOR THE FLORIDA KEYS
NATIONAL WEATHER SERVICE KEY WEST FLORIDA
500 AM EDT FRI JUL 11 2014

...SOUTH FLORIDA AND THE KEYS...

CITY           SKY/WX    TMP DP  RH WIND       PRES   REMARKS
FORT MYERS     CLEAR     74  72  93 CALM      30.08S
SW REGIONAL AP PTCLDY    73  71  93 CALM      30.08S
NAPLES         PTCLDY    75  74  96 E3        30.08R
MIAMI          MOCLDY    75  73  93 CALM      30.08S
WEST KENDALL   RAIN      79  75  87 S3        30.07F
HOMESTEAD      MOCLDY    77  72  83 E3        30.07S
MARATHON       CLEAR     83  75  77 VRB6      30.06S HX  90
BOCA CHICA NAS PTCLDY    83  74  74 E10       30.06S
KEY WEST INTL  PTCLDY    84  74  71 E13       30.06S HX  91

...INTERNATIONAL WEATHER...

CITY           SKY/WX    TMP DP  RH WIND       PRES   REMARKS
NASSAU BAHAMAS PTCLDY    81  77  89 E6        30.09F
CANCUN MEXICO  PTCLDY    81  77  89 E6        30.00F
COZUMEL MEXICO PTCLDY    75  73  94 CALM      29.99F

ADJACENT COASTAL WATERS...

STATION/POSITION TIME  SKY/WX   TEMP    WIND        PRES    WAVE
                                AIR SEA DIR/SP/G            HT/PER
                 (UTC)          (F)     (DEG/KT/KT) (MB)    (FT/S)
PULASKI SHOAL LI 0900            84     100/  9/ 10 1017.7S
SAND KEY         0900            84     100/ 14/ 16 1017.6F
SOMBRERO KEY     0900            83      80/ 10/ 11 1018.6R
LONG KEY         0800            84 87  110/  6/  7 1018.8F
MOLASSES REEF    0900            83 85  140/ 10/ 11 1018.2R
FOWEY ROCKS      0900            83 84  110/ 12/ 13 1018.4F
Buoy 42080       NOT AVBL

$$



USA.gov is the U.S. government's official web portal to all federal, state and local government web resources and services.